Regional Weather Roundup
Issued by NWS

Home | Current Version | Previous Version | Graphics & Text | Print | Product List | Glossary On
Versions: 1 2 3 4 5 6 7 8 9 10 11 12 13 14 15 16 17 18 19 20 21 22 23 24 25 26 27 28 29 30 31 32 33 34 35 36 37 38 39 40 41 42 43 44 45 46 47 48 49 50
000
ASUS44 KMEG 200700
RWRTN
TENNESSEE HOURLY STATE WEATHER ROUNDUP
NATIONAL WEATHER SERVICE MEMPHIS TN
100 AM CST TUE FEB 20 2018

TNZ002-004-019-021-049-052-054-088>092-200800-
WEST TENNESSEE

CITY           SKY/WX    TMP DP  RH WIND       PRES   REMARKS
MEMPHIS INTL   FAIR      70  60  70 S21G28    30.06F
NWS MEMPHIS      N/A     70 N/A N/A MISG        N/A
JACKSON        FAIR      69  61  75 S13G22    30.10R
DYERSBURG      FAIR      69  61  75 S9G16     30.06S
$$

TNZ008-025-027-028-033-062-065-066-200800-
NORTH MIDDLE TENNESSEE

CITY           SKY/WX    TMP DP  RH WIND       PRES   REMARKS
NASHVILLE      MOCLDY    68  32  26 S15       30.17R
CLARKSVILLE    FAIR      69  56  62 S17       30.12R
SMYRNA         FAIR      67  57  70 S7        30.19R
CROSSVILLE     FAIR      60  54  80 S12G20    30.28S
$$

TNZ061-075-076-078-094-096-097-200800-
SOUTH MIDDLE TENNESSEE

CITY           SKY/WX    TMP DP  RH WIND       PRES   REMARKS
WINCHESTER     CLEAR     64  57  77 S13       30.25S
$$

TNZ017-018-042-046-047-200800-
NORTHEAST TENNESSEE

CITY           SKY/WX    TMP DP  RH WIND       PRES   REMARKS
TRI CITIES     FAIR      52  51  97 CALM      30.31S
$$

TNZ012-013-036-069-073-074-200800-
CENTRAL EAST TENNESSEE

CITY           SKY/WX    TMP DP  RH WIND       PRES   REMARKS
KNOXVILLE      FAIR      59  54  83 NW7       30.26S
OAK RIDGE      FAIR      56  56 100 SW3       30.29R
$$

TNZ083-085-099-200800-
SOUTHEAST TENNESSEE

CITY           SKY/WX    TMP DP  RH WIND       PRES   REMARKS
CHATTANOOGA    MOCLDY    58  55  90 S7        30.30R
$$

SKY/WX REPORTED AS FAIR MEANS FEW OR NO CLOUDS BELOW
12 THOUSAND FEET.





USA.gov is the U.S. government's official web portal to all federal, state and local government web resources and services.